Preview of NWS' New Version of Forecast
This preview is not operational and should not be used for support decisions.

Regional Weather Roundup (RWR)

Issued by National Weather Service (NWS)

                            
000
ASUS43 KLSX 250257
RWRMO 

WEATHER SUMMARY FOR MISSOURI
NATIONAL WEATHER SERVICE SPRINGFIELD MO
1000 PM CDT SUN MAR 24 2019

NOTE: "FAIR" INDICATES FEW OR NO CLOUDS BELOW 12,000 FEET WITH NO
       SIGNIFICANT WEATHER AND/OR OBSTRUCTIONS TO VISIBILITY.
       CURRENT SKY AND/OR WEATHER CONDITIONS ARE NOT AVAILABLE FOR
       CHILLICOTHE AND FARMINGTON.

MOZ001>031-035>038-043-044-053-054-250400-
...NORTHERN AND WESTERN MISSOURI...
  
CITY           SKY/WX    TMP DP  RH WIND       PRES   REMARKS
KANSAS CTY INT CLOUDY    51  46  83 N13       30.07R                  
LEE'S SUMMIT   CLOUDY    53  45  74 N12       30.05R                  
ST JOSEPH        N/A    N/A N/A N/A MISG      30.10R                  
CHILLICOTHE      N/A     51  49  92 N7G18     30.06R                  
     
$$
MOZ066>068-077>081-088>096-101>105-250400-
...SOUTHWEST MISSOURI...
  
CITY           SKY/WX    TMP DP  RH WIND       PRES   REMARKS
SPRINGFIELD    PTCLDY    50  42  74 NW8       30.02R                  
JOPLIN         CLEAR     52  44  74 NW5       30.05R                  
               
$$
MOZ032>034-039>042-045>050-055>058-069>072-250400-
...CENTRAL MISSOURI...  
  
CITY           SKY/WX    TMP DP  RH WIND       PRES   REMARKS
COLUMBIA       NOT AVBL                                               
JEFFERSON CITY CLOUDY    58  50  75 N6        29.99R                  
ROLLA          MOCLDY    55  46  71 NW14      29.97R                  
SEDALIA        CLOUDY    53  46  77 NW12      30.02R                  
WHITEMAN AFB   MOCLDY    54  45  71 N10       29.99R                  
WARRENSBURG    CLOUDY    52  43  71 NW8       30.03R                  
               
$$
MOZ051-052-059>065-250400-
...EAST CENTRAL MISSOURI...
  
CITY           SKY/WX    TMP DP  RH WIND       PRES   REMARKS
ST LOUIS INTL  PTCLDY    55  52  89 N5        29.93R                  
                   
$$
MOZ072>076-082>087-097>100-106>115-250400-
...SOUTH CENTRAL AND SOUTHEAST MISSOURI...
  
CITY           SKY/WX    TMP DP  RH WIND       PRES   REMARKS
CAPE GIRARDEAU LGT RAIN  61  58  90 S16G25    29.95F FOG              
POPLAR BLUFF   RAIN      62  59  90 SW6       29.97R FOG              
WEST PLAINS    CLOUDY    57  55  93 W3        29.98R                  
                                       
$$